Date String (YYYY-MM-DD hh:mm:ss) UTC,Instrument flags,absolute air pressure of the measurement (hPa),sample flow rate (lpm),inlet stack bypass flow (lpm),air temperature of the measurement (°C),ambient temperature measured by the external sensor (°C),aerosol sample conditioner tube jacket temperature (°C),OPC LED temperature (°C),internal box temperature (°C),relative humidity of the measurement (%),span deviation,mass concentration of particles derived from Lorenz-Mie calculation of OPC scattering (μg/m³),mass concentration of particles derived from Lorenz-Mie calculation of OPC scattering (μg/m³),mass concentration of particles derived from Lorenz-Mie calculation of OPC scattering (μg/m³)
DateTimeUTC,F1_M11,P_M11,Q1_M11,Q2_M11,T1_M11,T2_M11,T3_M11,T4_M11,T5_M11,U1_M11,ZSPAN_M11,X0_M11,X2_M11,X1_M11
2023-07-25 20:00:00,SystemResetWarning,0833.4,4.99,000.00,028.8,027.2,000.0,037.0,030.5,23.6,0000.0,0009.57,0004.17,0003.18
2023-07-25 20:01:00,SystemResetWarning,0833.4,5.00,000.00,028.8,025.8,000.0,036.9,030.2,22.8,0000.0,0009.77,0004.17,0003.19
2023-07-25 20:02:00,SystemResetWarning,0833.4,5.01,000.00,028.7,025.3,000.0,036.9,030.2,22.7,0000.0,0009.54,0004.16,0003.19
2023-07-25 20:03:00,SystemResetWarning,0833.3,5.01,000.00,028.7,025.7,000.0,036.9,030.1,23.8,0000.0,0009.71,0004.17,0003.19
2023-07-25 20:04:00,SystemResetWarning,0833.4,5.00,000.00,028.7,026.0,000.0,036.9,030.1,23.4,0000.0,0009.83,0004.14,0003.19
2023-07-25 20:05:00,SystemResetWarning,0833.3,5.00,000.00,028.7,026.5,000.0,036.9,030.2,22.8,0000.0,0009.58,0004.18,0003.20
2023-07-25 20:06:00,SystemResetWarning,0833.3,5.01,000.00,028.7,026.9,000.0,037.0,030.4,23.0,0000.0,0009.50,0004.21,0003.20
2023-07-25 20:07:00,SystemResetWarning,0833.3,4.98,000.00,028.8,027.3,000.0,037.0,030.5,24.2,0000.0,0009.94,0004.20,0003.20
2023-07-25 20:08:00,SystemResetWarning,0833.3,4.99,000.00,028.8,027.1,000.0,037.0,030.5,23.9,0000.0,0009.83,0004.16,0003.19
2023-07-25 20:09:00,SystemResetWarning,0833.2,4.99,000.00,028.8,025.7,000.0,036.9,030.3,23.6,0000.0,0009.97,0004.14,0003.19
2023-07-25 20:10:00,SystemResetWarning,0833.2,5.02,000.00,028.7,025.2,000.0,036.8,030.2,24.0,0000.0,0010.36,0004.16,0003.21
2023-07-25 20:11:00,SystemResetWarning,0833.2,5.00,000.00,028.7,025.6,000.0,036.9,030.1,25.6,0000.0,0010.24,0004.12,0003.21
2023-07-25 20:12:00,SystemResetWarning,0833.2,4.99,000.00,028.7,026.0,000.0,036.9,030.2,25.8,0000.0,0010.03,0004.12,0003.22
2023-07-25 20:13:00,SystemResetWarning,0833.2,5.00,000.00,028.7,026.4,000.0,036.9,030.3,24.9,0000.0,0010.15,0004.13,0003.23
2023-07-25 20:14:00,SystemResetWarning,0833.2,5.00,000.00,028.7,026.9,000.0,037.0,030.4,26.5,0000.0,0010.25,0004.10,0003.23
2023-07-25 20:15:00,SystemResetWarning,0833.2,4.99,000.00,028.8,027.1,000.0,037.0,030.5,23.5,0000.0,0010.11,0004.12,0003.23
2023-07-25 20:16:00,SystemResetWarning,0833.2,4.99,000.00,028.8,026.2,000.0,036.9,030.3,23.2,0000.0,0009.58,0004.07,0003.24
2023-07-25 20:17:00,SystemResetWarning,0833.2,5.02,000.00,028.7,025.1,000.0,036.9,030.1,23.3,0000.0,0009.53,0004.04,0003.25
2023-07-25 20:18:00,SystemResetWarning,0833.1,5.00,000.00,028.7,025.3,000.0,036.8,030.1,22.8,0000.0,0009.24,0004.06,0003.27
2023-07-25 20:19:00,SystemResetWarning,0833.2,4.99,000.00,028.6,025.7,000.0,036.9,030.1,23.4,0000.0,0009.34,0004.16,0003.30
2023-07-25 20:20:00,SystemResetWarning,0833.1,5.00,000.00,028.6,026.2,000.0,036.9,030.2,23.7,0000.0,0009.24,0004.19,0003.32
2023-07-25 20:21:00,SystemResetWarning,0833.1,5.01,000.00,028.7,026.6,000.0,036.9,030.3,25.4,0000.0,0008.65,0004.22,0003.32
2023-07-25 20:22:00,SystemResetWarning,0833.1,5.01,000.00,028.7,027.0,000.0,037.0,030.4,24.5,0000.0,0008.58,0004.23,0003.33
2023-07-25 20:23:00,SystemResetWarning,0833.1,4.99,000.00,028.8,027.4,000.0,037.0,030.5,23.7,0000.0,0008.54,0004.25,0003.33
2023-07-25 20:24:00,SystemResetWarning,0833.1,4.98,000.00,028.8,027.1,000.0,037.0,030.5,23.6,0000.0,0008.53,0004.27,0003.33
2023-07-25 20:25:00,SystemResetWarning,0833.3,5.01,000.00,028.8,025.7,000.0,036.9,030.2,22.7,0000.0,0008.41,0004.36,0003.33
2023-07-25 20:26:00,SystemResetWarning,0833.0,5.01,000.00,028.7,025.2,000.0,036.8,030.1,22.2,0000.0,0008.96,0004.42,0003.35
2023-07-25 20:27:00,SystemResetWarning,0833.0,5.01,000.00,028.7,025.6,000.0,036.8,030.1,23.2,0000.0,0009.06,0004.43,0003.34
2023-07-25 20:28:00,SystemResetWarning,0833.0,5.00,000.00,028.6,026.0,000.0,036.9,030.1,23.0,0000.0,0009.27,0004.46,0003.34
2023-07-25 20:29:00,SystemResetWarning,0833.3,5.00,000.00,028.7,026.4,000.0,036.9,030.2,23.6,0000.0,0009.40,0004.46,0003.32
2023-07-25 20:30:00,SystemResetWarning,0833.3,5.00,000.00,028.7,026.9,000.0,037.0,030.4,23.7,0000.0,0009.27,0004.40,0003.31
2023-07-25 20:31:00,SystemResetWarning,0833.2,5.00,000.00,028.8,027.2,000.0,037.0,030.5,23.8,0000.0,0009.21,0004.37,0003.29
2023-07-25 20:32:00,SystemResetWarning,0833.1,4.98,000.00,028.8,027.0,000.0,037.0,030.5,26.0,0000.0,0009.04,0004.30,0003.29
2023-07-25 20:33:00,SystemResetWarning,0833.2,5.00,000.00,028.8,025.6,000.0,036.9,030.2,25.4,0000.0,0009.12,0004.27,0003.30
2023-07-25 20:34:00,SystemResetWarning,0833.0,5.02,000.00,028.7,025.2,000.0,036.8,030.1,24.3,0000.0,0009.83,0004.27,0003.31
2023-07-25 20:35:00,SystemResetWarning,0833.3,5.00,000.00,028.7,025.6,000.0,036.9,030.1,25.6,0000.0,0009.92,0004.23,0003.31
2023-07-25 20:36:00,SystemResetWarning,0833.0,5.00,000.00,028.6,026.0,000.0,036.9,030.2,25.7,0000.0,0009.59,0004.14,0003.30
2023-07-25 20:37:00,SystemResetWarning,0833.1,5.00,000.00,028.7,026.4,000.0,036.9,030.3,24.2,0000.0,0009.30,0004.13,0003.29
2023-07-25 20:38:00,SystemResetWarning,0833.0,5.01,000.00,028.7,026.9,000.0,037.0,030.4,23.5,0000.0,0009.49,0004.14,0003.30
2023-07-25 20:39:00,SystemResetWarning,0833.3,4.99,000.00,028.8,027.3,000.0,037.0,030.5,24.4,0000.0,0009.36,0004.14,0003.31
2023-07-25 20:40:00,SystemResetWarning,0833.2,4.98,000.00,028.8,027.1,000.0,037.0,030.5,25.0,0000.0,0009.19,0004.13,0003.32
2023-07-25 20:41:00,SystemResetWarning,0833.3,5.01,000.00,028.8,025.8,000.0,036.9,030.3,24.0,0000.0,0009.24,0004.10,0003.34
2023-07-25 20:42:00,SystemResetWarning,0833.2,5.01,000.00,028.7,025.4,000.0,036.9,030.2,24.8,0000.0,0009.21,0004.10,0003.34
2023-07-25 20:43:00,SystemResetWarning,0833.1,5.01,000.00,028.7,025.7,000.0,036.9,030.2,25.1,0000.0,0009.25,0004.12,0003.34
2023-07-25 20:44:00,SystemResetWarning,0833.1,5.00,000.00,028.7,026.1,000.0,036.9,030.2,24.4,0000.0,0009.14,0004.15,0003.34
2023-07-25 20:45:00,SystemResetWarning,0832.9,5.00,000.00,028.7,026.6,000.0,036.9,030.3,23.1,0000.0,0008.41,0004.15,0003.34
2023-07-25 20:46:00,SystemResetWarning,0833.3,4.99,000.00,028.8,027.0,000.0,037.0,030.5,22.8,0000.0,0008.69,0004.19,0003.35
2023-07-25 20:47:00,SystemResetWarning,0833.2,4.99,000.00,028.8,027.3,000.0,037.0,030.6,24.3,0000.0,0008.83,0004.23,0003.36
2023-07-25 20:48:00,SystemResetWarning,0832.8,5.00,000.00,028.8,026.4,000.0,036.9,030.4,24.7,0000.0,0008.65,0004.19,0003.36
2023-07-25 20:49:00,SystemResetWarning,0832.8,5.00,000.00,028.8,025.2,000.0,036.9,030.2,23.7,0000.0,0008.35,0004.16,0003.37
2023-07-25 20:50:00,SystemResetWarning,0832.8,5.02,000.00,028.7,025.5,000.0,036.8,030.2,23.4,0000.0,0008.30,0004.13,0003.38
2023-07-25 20:51:00,SystemResetWarning,0832.8,5.00,000.00,028.7,025.9,000.0,036.9,030.2,24.2,0000.0,0008.34,0004.13,0003.39
2023-07-25 20:52:00,SystemResetWarning,0832.8,5.00,000.00,028.7,026.3,000.0,036.9,030.3,23.1,0000.0,0008.41,0004.19,0003.37
2023-07-25 20:53:00,SystemResetWarning,0832.7,5.01,000.00,028.7,026.8,000.0,037.0,030.4,22.7,0000.0,0008.60,0004.28,0003.37
2023-07-25 20:54:00,SystemResetWarning,0832.8,5.00,000.00,028.8,027.2,000.0,037.0,030.5,22.6,0000.0,0008.72,0004.26,0003.37
2023-07-25 20:55:00,SystemResetWarning,0832.8,4.99,000.00,028.8,026.9,000.0,037.0,030.5,23.8,0000.0,0008.85,0004.26,0003.37
2023-07-25 20:56:00,SystemResetWarning,0832.8,4.99,000.00,028.8,025.6,000.0,036.9,030.3,24.3,0000.0,0009.00,0004.28,0003.36
2023-07-25 20:57:00,SystemResetWarning,0832.8,5.01,000.00,028.7,025.3,000.0,036.8,030.2,23.6,0000.0,0009.36,0004.35,0003.37
2023-07-25 20:58:00,SystemResetWarning,0832.7,5.01,000.00,028.7,025.7,000.0,036.9,030.2,22.6,0000.0,0009.29,0004.34,0003.37
2023-07-25 20:59:00,SystemResetWarning,0832.8,5.00,000.00,028.7,026.1,000.0,036.9,030.2,23.2,0000.0,0009.52,0004.38,0003.37
